SCP
-0 0 0 0 0 0 0 -0 -0 0 -0 -0 -0 -0 -0 -0 -0 -0 -0 -0 -0 -0 -0 -0 -0 0 0 0 0 -0 0 -0 0 0 0 0 0 0 0 0 0 0 0 0 0
0 0 0 0 0 0 0 -0 -0 0 -0 -0 -0 -0 -0 -0 -0 -0 -0 -0 -0 -0 -0 -0 -0 0 0 0 -0 -0 0 0 0 0 0 0 0 0 0 0 0 0 0 0 0
0 0 0 0 0 0 0 -0 -0 -0 -0 -0 -0 -0 -0 -0 -0 -0 -0 -0 -0 -0 -0 -0 -0 -0 -0 0 -0 0 0 -0 0 0 0 0 0 0 0 0 0 0 0 0 0
0 0 0 0 0 0 0 0 0 0 -0 -0 -0 -0 -0 -0 0 -0 -0 -0 -0 -0 -0 -0 -0 -0 -0 -0 -0 -0 -0 0 0 0 0 0 0 0 0 0 0 0 0 0 0
0 0 0 0 0 0 0 0 0 0 0 -0 -0 -0 -0 -0 -0 -0 -0 -0 -0 -0 -0 -0 -0 -0 -0 -0 -0 -0 0 0 0 0 0 0 0 0 0 0 0 0 0 0 0
0 0 0 0 0 0 0 0 0 0 0 -0 -0 -0 0 0 -0 -0 -0 -0 -0 -0 -0 -0 -0 -0 -0 0 0 0 0 0 0 0 0 0 0 0 0 0 0 0 0 0 0
0 0 0 0 0 0 0 0 0 0 0 -0 -0 -0 -0 -0 -0 -0 -0 -0 -0 -0 -0 -0 0 0 0 0 0 0 0 0 0 0 0 0 0 0 0 0 0 0 0 0 0
0 0 0 0 0 0 0 0 0 0 0 0 -0 0 0 -0 -0 -0 -0 0 -0 -0 -0 -0 0 0 0 0 0 0 0 0 0 0 0 0 0 0 0 0 0 0 0 0 0
0 0 0 0 0 0 0 0 0 0 0 0 0 0 -0 0 -0 -0 -0 -0 -0 0 -0 0 0 0 0 0 0 0 0 0 0 0 0 0 0 0 0 0 0 0 0 0 0
0 0 0 0 0 0 0 0 -0 0 0 0 0 0 0 -0 -0 -0 -0 -0 -0 0 0 0 0 0 0 0 0 0 0 0 0 0 0 0 0 0 0 0 0 0 0 0 0
0 0 0 0 0 0 0 0 0 0 0 -0 0 -0 -0 -0 0 -0 -0 0 0 0 0 0 0 0 0 0 0 0 0 0 0 0 0 0 0 0 0 0 0 0 0 0 0
0 0 0 0 0 0 0 -0 -0 -0 0 0 -0 -0 0 0 -0 -0 -0 0 0 0 0 0 0 0 0 0 0 0 0 0 0 0 0 0 0 0 0 0 0 0 0 0 0
0 0 0 0 0 0 -0 -0 0 0 0 0 0 0 -0 0 0 -0 -0 0 0 0 0 0 0 0 0 0 0 0 0 0 0 0 0 0 0 0 0 0 0 0 0 0 0
0 0 0 0 0 -0 -0 -0 0 -0 0 0 -0 -0 0 0 0 -0 0 0 0 0 0 0 0 0 0 0 0 0 0 0 0 0 0 0 0 0 0 0 0 0 0 0 0
0 0 0 0 0 -0 -0 0 0 0 0 0 0 0 0 0 0 0 -0 0 0 0 0 0 0 0 0 0 0 0 0 0 0 0 0 0 0 0 0 0 0 0 0 0 -0
0 0 0 0 0 0 0 0 0 0 0 0 0 0 0 0 0 0 -0 0 0 0 0 0 0 0 0 0 0 0 0 0 0 0 0 0 0 0 0 0 0 0 0 -0 -0
0 0 0 0 0 0 -0 -0 0 -0 0 0 0 0 0 0 0 0 0 0 0 0 0 0 0 0 0 0 0 0 -0 0 0 0 0 0 0 0 0 0 0 0 0 -0 0
0 0 0 0 0 0 -0 0 -0 -0 -0 0 0 0 0 -0 0 0 0 0 0 0 0 0 0 0 0 0 0 0 0 0 0 0 0 0 0 0 0 0 0 0 0 0 0
0 0 0 0 0 0 0 -0 -0 0 -0 -0 0 0 0 0 0 0 0 0 0 0 0 0 0 0 0 0 0 0 0 0 0 0 0 0 0 0 0 0 0 0 -0 0 0
0 0 0 0 0 0 0 0 0 0 -0 -0 -0 -0 0 0 0 0 0 0 0 0 0 0 0 0 0 0 0 0 0 0 0 0 0 0 0 0 0 0 -0 -0 0 0 0
0 0 0 0 0 0 0 0 0 0 0 -0 -0 0 0 0 0 0 0 0 0 0 0 0 0 0 0 0 0 0 0 0 0 0 0 0 0 0 0 0 -0 -0 0 0 0
0 0 0 0 0 0 0 0 0 0 0 0 0 0 0 0 0 0 0 0 0 0 0 0 0 0 0 0 0 0 0 0 0 0 0 0 0 0 0 0 0 -0 0 0 0
0 0 0 0 0 0 0 0 0 0 0 0 0 0 0 0 0 0 0 0 0 0 0 0 0 0 0 0 0 0 0 0 0 0 0 0 0 0 0 0 0 -0 -0 0 0
0 0 0 0 0 0 0 0 0 0 0 0 0 0 0 0 0 0 0 0 0 0 0 0 0 0 0 0 0 0 0 0 0 0 0 0 0 0 0 0 -0 -0 -0 0 0
0 0 0 0 0 0 0 0 0 0 0 0 0 0 0 0 0 0 0 0 0 0 0 0 0 0 0 0 0 0 0 0 0 0 0 0 0 0 0 0 -0 0 -0 -0 -0
0 0 0 0 0 0 0 0 0 0 0 0 0 0 0 0 0 0 0 0 0 0 0 0 0 0 0 0 0 0 0 0 0 0 0 0 0 0 0 0 -0 -0 -0 -0 0
0 0 0 0 0 0 0 0 0 0 0 0 0 0 0 0 0 0 0 0 0 0 0 0 0 0 0 0 0 0 0 0 0 0 0 0 0 0 0 0 0 0 -0 -0 0
Wind_Speed_500mb
14 11 10 10 9 11 16 21 24 23 22 19 22 23 26 32 33 24 22 27 21 13 10 14 10 7 8 11 9 6 1 11 3 4 13 29 8 27 32 44 55 37 37 24 20
16 13 10 9 10 16 22 27 29 28 20 15 12 14 12 16 17 31 24 17 11 10 10 8 8 6 5 6 7 4 5 8 12 16 28 47 36 21 27 39 38 35 33 29 26
18 15 11 10 13 20 26 30 30 21 14 4 3 4 1 8 4 23 22 21 10 10 6 6 5 6 9 11 13 10 14 24 26 19 8 30 53 42 8 29 36 33 29 30 30
17 15 15 16 19 22 27 26 19 10 11 6 7 2 4 9 4 25 26 26 14 12 14 7 6 4 9 12 13 25 36 26 34 26 21 34 35 47 44 30 26 28 27 32 36
16 16 19 21 23 26 26 22 16 11 15 14 13 20 19 18 15 23 26 28 22 14 11 10 8 7 10 29 36 32 30 33 34 43 44 43 42 36 34 24 23 25 30 34 37
16 17 20 24 27 28 27 20 16 25 27 19 17 20 10 25 18 21 25 24 19 19 21 24 23 21 19 14 15 26 34 29 29 27 19 31 29 12 23 19 22 25 32 38 42
16 19 24 28 27 23 19 20 25 9 8 11 23 23 32 19 22 14 20 33 30 19 17 23 17 7 11 21 30 38 25 20 11 11 14 14 31 21 16 17 23 31 36 40 45
16 20 26 25 24 22 25 19 11 8 9 12 21 19 13 27 21 11 9 9 23 25 24 23 21 26 14 14 12 11 9 10 17 17 7 6 12 19 17 20 28 34 40 45 52
16 22 23 21 18 16 15 10 13 14 13 12 15 4 9 22 29 26 21 11 9 13 19 21 24 26 6 9 13 6 22 26 7 20 16 16 15 16 16 23 30 36 44 53 59
17 22 19 16 13 15 17 13 12 3 5 14 12 9 20 23 38 37 16 21 10 6 5 13 13 18 28 25 12 25 25 25 18 14 14 14 18 15 21 23 29 39 51 59 65
17 21 18 14 20 28 13 9 2 9 48 24 17 15 16 21 24 37 21 19 5 13 7 25 23 23 25 23 12 18 20 23 34 12 22 8 13 12 10 23 36 47 59 67 69
14 19 21 18 18 4 8 2 4 21 24 23 24 21 19 24 10 50 35 9 31 20 4 14 30 20 9 24 25 14 20 28 12 6 14 15 12 7 8 24 40 52 64 70 71
12 17 21 17 11 1 5 27 27 17 3 13 19 21 20 20 23 39 33 14 20 30 38 34 17 11 14 23 33 8 25 32 36 35 5 8 17 11 8 23 44 57 68 69 73
10 15 18 15 5 7 14 11 5 5 9 14 18 19 26 2 11 31 30 13 14 19 15 18 23 19 17 21 32 14 34 33 29 17 9 6 6 12 7 26 50 72 71 72 77
9 13 17 23 8 9 15 6 6 3 8 12 11 14 20 17 7 42 33 28 28 29 7 10 18 30 23 20 28 15 50 39 17 15 11 9 15 15 14 34 51 70 77 79 81
12 12 10 19 15 16 19 8 12 10 6 6 8 16 1 29 12 15 27 19 9 14 35 21 14 18 22 18 11 47 45 12 7 9 6 13 13 17 16 36 49 74 80 84 87
11 12 8 13 12 21 15 8 11 6 4 7 7 9 9 18 16 18 17 33 16 12 17 15 31 9 46 17 1 44 40 9 9 11 12 35 17 16 18 40 51 68 81 88 91
13 10 11 11 22 16 6 10 7 6 8 3 4 3 9 17 12 17 5 13 29 23 10 14 3 28 34 29 16 26 26 11 13 19 23 20 19 10 14 57 63 69 80 87 92
14 12 11 16 21 10 7 7 11 8 5 1 4 4 8 7 8 6 16 13 19 28 17 17 9 8 18 21 33 17 14 9 12 14 13 13 15 15 43 53 68 76 84 85 91
11 8 9 17 17 8 5 9 5 7 4 5 6 8 8 13 3 7 14 11 11 18 14 13 5 9 6 7 26 16 16 3 7 17 17 19 11 20 50 54 60 78 84 88 92
8 6 7 19 15 0 1 9 9 7 6 9 6 4 9 9 11 9 12 5 14 14 12 13 5 8 4 17 20 14 12 10 5 4 8 15 9 23 43 50 57 83 87 90 98
1 6 13 20 6 6 7 8 9 8 6 6 6 11 8 8 8 7 8 12 14 13 9 13 8 7 8 10 11 20 14 10 6 12 9 7 10 42 57 62 75 85 86 93 95
2 5 10 16 6 7 11 10 8 7 6 4 5 8 4 6 3 7 9 6 12 12 11 13 4 5 11 9 8 7 9 5 2 6 6 8 13 55 58 67 77 84 89 92 99
3 4 5 4 5 16 17 13 10 7 7 9 8 4 6 7 11 7 7 3 6 8 10 7 5 8 8 8 6 5 2 6 9 8 20 21 43 47 45 52 80 86 88 89 96
4 2 7 6 7 18 11 12 17 8 6 4 6 5 5 5 6 7 7 8 4 4 5 6 2 4 6 4 3 7 5 7 6 16 11 34 38 37 46 64 77 81 84 95 98
6 10 11 9 17 25 4 11 17 12 3 6 7 8 6 7 9 5 6 1 6 4 3 5 1 5 4 4 9 10 8 12 15 16 24 30 33 50 64 70 75 78 85 91 95
15 14 6 7 14 8 6 16 18 25 13 12 23 21 21 17 20 21 20 16 11 3 3 5 3 5 3 3 6 10 5 6 19 20 20 24 35 54 57 67 75 69 86 89 92
Wind_Direction_500mb
17 33 57 75 79 105 118 120 121 113 106 112 114 99 92 77 56 40 21 353 3 20 16 24 357 299 33 38 41 311 165 106 133 311 84 10 66 62 70 61 56 60 60 54 34
36 44 62 85 87 127 129 124 117 105 96 104 123 125 97 76 76 37 14 356 359 20 22 358 30 44 76 46 29 320 127 70 17 27 78 53 45 41 71 45 48 55 50 38 30
44 46 70 101 108 127 134 130 122 95 84 80 192 190 94 9 344 10 15 19 20 29 46 340 334 17 66 49 18 10 87 85 25 28 92 87 56 41 16 50 40 40 33 30 24
46 55 81 100 114 125 137 137 135 74 31 40 77 103 72 1 17 352 17 21 27 25 354 312 275 333 54 71 74 91 52 72 53 58 75 83 87 65 64 63 53 45 32 26 20
56 75 91 104 114 119 129 127 121 76 57 82 107 94 74 76 21 16 15 15 17 22 26 16 23 23 79 93 87 98 102 88 83 84 85 87 74 76 66 58 47 37 26 17 8
71 92 102 110 118 120 121 122 111 104 78 78 106 65 85 73 20 26 30 21 27 46 54 65 57 74 74 29 22 104 105 101 87 85 93 89 61 76 57 44 34 20 12 5 1
89 103 112 116 116 120 120 116 130 105 53 87 103 100 65 46 16 29 32 27 46 67 80 61 35 85 90 91 110 124 113 119 64 100 114 136 67 60 43 32 23 11 4 359 355
109 116 123 119 113 107 125 120 99 107 114 50 81 55 67 21 18 6 3 37 49 56 72 81 72 69 64 110 167 245 245 259 63 20 101 259 79 62 42 26 20 9 3 355 353
125 134 130 124 117 118 131 110 85 91 75 46 34 65 53 7 13 17 16 15 12 22 53 58 73 66 30 266 219 185 341 345 110 50 6 350 93 63 34 26 12 0 355 355 349
141 150 140 131 126 115 108 85 66 83 49 26 32 116 29 354 13 1 6 31 5 1 35 50 63 59 36 20 19 333 332 330 329 18 350 66 95 76 44 23 0 353 355 350 345
155 165 154 137 127 126 99 326 263 73 57 66 42 68 21 354 25 13 27 25 15 51 78 51 63 42 33 24 346 307 301 320 345 63 324 81 123 93 36 16 4 1 352 347 343
162 175 178 160 159 149 351 267 113 136 81 52 52 44 33 17 18 14 43 55 45 47 147 116 53 28 22 13 335 333 347 345 318 308 321 121 128 114 24 19 7 355 349 347 344
163 180 180 180 187 146 86 121 124 125 137 43 37 25 13 21 36 359 21 21 27 47 52 62 25 6 13 16 354 59 1 338 314 315 143 191 163 197 98 12 358 351 349 348 344
168 184 183 175 137 155 156 127 122 226 211 21 8 14 355 24 54 18 17 17 49 35 59 59 24 15 20 21 354 308 354 321 322 320 348 198 2 134 13 359 354 350 349 345 342
168 180 188 180 203 189 197 192 342 283 241 13 18 1 17 62 338 12 19 58 57 26 252 52 31 18 26 1 352 325 316 289 284 286 307 99 298 106 46 355 354 347 346 343 341
177 176 190 208 247 203 187 247 317 231 84 72 17 356 85 35 37 9 30 47 68 66 74 74 65 35 356 315 338 333 325 82 194 257 238 34 338 81 22 4 350 344 341 341 339
159 191 193 183 202 166 174 298 252 342 180 63 12 6 58 25 41 30 52 47 32 333 32 129 51 88 13 356 194 2 357 353 346 339 4 358 312 61 19 7 355 343 340 339 339
166 168 172 174 159 159 174 244 281 38 37 84 334 6 56 355 52 27 54 49 29 355 319 346 264 21 19 32 322 357 12 31 319 341 315 300 340 87 359 3 353 344 339 338 339
135 151 163 166 170 161 270 255 27 43 27 315 241 275 99 64 349 83 54 39 22 12 8 348 82 117 33 17 14 346 22 337 289 286 297 352 65 160 1 357 349 344 341 339 338
111 116 141 160 163 148 272 74 85 53 353 283 354 352 20 18 342 41 35 14 11 18 348 20 277 34 35 263 52 47 353 6 325 346 320 338 28 348 350 350 346 344 340 340 338
110 151 159 140 125 43 23 71 111 73 28 354 43 78 56 29 20 47 33 71 8 353 347 344 272 101 245 32 10 11 25 10 273 14 310 316 34 5 351 348 343 338 338 339 339
217 197 168 146 154 46 96 95 112 109 67 61 62 47 49 40 52 75 74 40 3 346 6 14 319 14 51 101 47 42 27 3 1 338 308 260 291 18 352 341 341 335 338 340 335
213 82 160 166 160 108 124 99 82 133 59 79 88 27 59 80 85 62 77 40 17 16 13 359 54 293 176 189 186 41 24 17 225 243 271 310 293 355 336 340 339 336 340 336 342
199 145 83 71 80 144 142 137 116 69 88 74 106 107 137 95 42 120 105 100 28 39 2 312 3 9 340 354 337 309 338 332 324 286 324 286 326 331 344 337 336 338 339 340 342
192 108 136 146 144 141 113 142 137 128 87 117 106 62 62 105 105 99 102 139 99 3 360 335 319 5 24 42 289 319 271 261 247 308 295 313 320 337 337 333 334 337 335 344 343
170 139 96 74 123 126 126 160 143 120 359 117 143 99 50 79 34 126 132 305 43 109 26 2 354 299 230 270 293 263 238 278 294 305 304 311 311 344 327 331 339 336 347 343 342
208 159 146 135 162 185 132 147 151 130 60 70 125 110 82 78 89 85 83 84 90 24 71 344 336 302 2 326 301 233 236 284 318 327 317 313 327 330 331 336 335 338 346 343 344
Wind_Speed_850mb
14 11 10 10 9 11 16 21 24 23 22 19 22 23 26 32 33 24 22 27 21 13 10 14 10 7 8 11 9 6 1 11 3 4 13 29 8 27 32 44 55 37 37 24 20
16 13 10 9 10 16 22 27 29 28 20 15 12 14 12 16 17 31 24 17 11 10 10 8 8 6 5 6 7 4 5 8 12 16 28 47 36 21 27 39 38 35 33 29 26
18 15 11 10 13 20 26 30 30 21 14 4 3 4 1 8 4 23 22 21 10 10 6 6 5 6 9 11 13 10 14 24 26 19 8 30 53 42 8 29 36 33 29 30 30
17 15 15 16 19 22 27 26 19 10 11 6 7 2 4 9 4 25 26 26 14 12 14 7 6 4 9 12 13 25 36 26 34 26 21 34 35 47 44 30 26 28 27 32 36
16 16 19 21 23 26 26 22 16 11 15 14 13 20 19 18 15 23 26 28 22 14 11 10 8 7 10 29 36 32 30 33 34 43 44 43 42 36 34 24 23 25 30 34 37
16 17 20 24 27 28 27 20 16 25 27 19 17 20 10 25 18 21 25 24 19 19 21 24 23 21 19 14 15 26 34 29 29 27 19 31 29 12 23 19 22 25 32 38 42
16 19 24 28 27 23 19 20 25 9 8 11 23 23 32 19 22 14 20 33 30 19 17 23 17 7 11 21 30 38 25 20 11 11 14 14 31 21 16 17 23 31 36 40 45
16 20 26 25 24 22 25 19 11 8 9 12 21 19 13 27 21 11 9 9 23 25 24 23 21 26 14 14 12 11 9 10 17 17 7 6 12 19 17 20 28 34 40 45 52
16 22 23 21 18 16 15 10 13 14 13 12 15 4 9 22 29 26 21 11 9 13 19 21 24 26 6 9 13 6 22 26 7 20 16 16 15 16 16 23 30 36 44 53 59
17 22 19 16 13 15 17 13 12 3 5 14 12 9 20 23 38 37 16 21 10 6 5 13 13 18 28 25 12 25 25 25 18 14 14 14 18 15 21 23 29 39 51 59 65
17 21 18 14 20 28 13 9 2 9 48 24 17 15 16 21 24 37 21 19 5 13 7 25 23 23 25 23 12 18 20 23 34 12 22 8 13 12 10 23 36 47 59 67 69
14 19 21 18 18 4 8 2 4 21 24 23 24 21 19 24 10 50 35 9 31 20 4 14 30 20 9 24 25 14 20 28 12 6 14 15 12 7 8 24 40 52 64 70 71
12 17 21 17 11 1 5 27 27 17 3 13 19 21 20 20 23 39 33 14 20 30 38 34 17 11 14 23 33 8 25 32 36 35 5 8 17 11 8 23 44 57 68 69 73
10 15 18 15 5 7 14 11 5 5 9 14 18 19 26 2 11 31 30 13 14 19 15 18 23 19 17 21 32 14 34 33 29 17 9 6 6 12 7 26 50 72 71 72 77
9 13 17 23 8 9 15 6 6 3 8 12 11 14 20 17 7 42 33 28 28 29 7 10 18 30 23 20 28 15 50 39 17 15 11 9 15 15 14 34 51 70 77 79 81
12 12 10 19 15 16 19 8 12 10 6 6 8 16 1 29 12 15 27 19 9 14 35 21 14 18 22 18 11 47 45 12 7 9 6 13 13 17 16 36 49 74 80 84 87
11 12 8 13 12 21 15 8 11 6 4 7 7 9 9 18 16 18 17 33 16 12 17 15 31 9 46 17 1 44 40 9 9 11 12 35 17 16 18 40 51 68 81 88 91
13 10 11 11 22 16 6 10 7 6 8 3 4 3 9 17 12 17 5 13 29 23 10 14 3 28 34 29 16 26 26 11 13 19 23 20 19 10 14 57 63 69 80 87 92
14 12 11 16 21 10 7 7 11 8 5 1 4 4 8 7 8 6 16 13 19 28 17 17 9 8 18 21 33 17 14 9 12 14 13 13 15 15 43 53 68 76 84 85 91
11 8 9 17 17 8 5 9 5 7 4 5 6 8 8 13 3 7 14 11 11 18 14 13 5 9 6 7 26 16 16 3 7 17 17 19 11 20 50 54 60 78 84 88 92
8 6 7 19 15 0 1 9 9 7 6 9 6 4 9 9 11 9 12 5 14 14 12 13 5 8 4 17 20 14 12 10 5 4 8 15 9 23 43 50 57 83 87 90 98
1 6 13 20 6 6 7 8 9 8 6 6 6 11 8 8 8 7 8 12 14 13 9 13 8 7 8 10 11 20 14 10 6 12 9 7 10 42 57 62 75 85 86 93 95
2 5 10 16 6 7 11 10 8 7 6 4 5 8 4 6 3 7 9 6 12 12 11 13 4 5 11 9 8 7 9 5 2 6 6 8 13 55 58 67 77 84 89 92 99
3 4 5 4 5 16 17 13 10 7 7 9 8 4 6 7 11 7 7 3 6 8 10 7 5 8 8 8 6 5 2 6 9 8 20 21 43 47 45 52 80 86 88 89 96
4 2 7 6 7 18 11 12 17 8 6 4 6 5 5 5 6 7 7 8 4 4 5 6 2 4 6 4 3 7 5 7 6 16 11 34 38 37 46 64 77 81 84 95 98
6 10 11 9 17 25 4 11 17 12 3 6 7 8 6 7 9 5 6 1 6 4 3 5 1 5 4 4 9 10 8 12 15 16 24 30 33 50 64 70 75 78 85 91 95
15 14 6 7 14 8 6 16 18 25 13 12 23 21 21 17 20 21 20 16 11 3 3 5 3 5 3 3 6 10 5 6 19 20 20 24 35 54 57 67 75 69 86 89 92
Wind_Direction_850mb
17 33 57 75 79 105 118 120 121 113 106 112 114 99 92 77 56 40 21 353 3 20 16 24 357 299 33 38 41 311 165 106 133 311 84 10 66 62 70 61 56 60 60 54 34
36 44 62 85 87 127 129 124 117 105 96 104 123 125 97 76 76 37 14 356 359 20 22 358 30 44 76 46 29 320 127 70 17 27 78 53 45 41 71 45 48 55 50 38 30
44 46 70 101 108 127 134 130 122 95 84 80 192 190 94 9 344 10 15 19 20 29 46 340 334 17 66 49 18 10 87 85 25 28 92 87 56 41 16 50 40 40 33 30 24
46 55 81 100 114 125 137 137 135 74 31 40 77 103 72 1 17 352 17 21 27 25 354 312 275 333 54 71 74 91 52 72 53 58 75 83 87 65 64 63 53 45 32 26 20
56 75 91 104 114 119 129 127 121 76 57 82 107 94 74 76 21 16 15 15 17 22 26 16 23 23 79 93 87 98 102 88 83 84 85 87 74 76 66 58 47 37 26 17 8
71 92 102 110 118 120 121 122 111 104 78 78 106 65 85 73 20 26 30 21 27 46 54 65 57 74 74 29 22 104 105 101 87 85 93 89 61 76 57 44 34 20 12 5 1
89 103 112 116 116 120 120 116 130 105 53 87 103 100 65 46 16 29 32 27 46 67 80 61 35 85 90 91 110 124 113 119 64 100 114 136 67 60 43 32 23 11 4 359 355
109 116 123 119 113 107 125 120 99 107 114 50 81 55 67 21 18 6 3 37 49 56 72 81 72 69 64 110 167 245 245 259 63 20 101 259 79 62 42 26 20 9 3 355 353
125 134 130 124 117 118 131 110 85 91 75 46 34 65 53 7 13 17 16 15 12 22 53 58 73 66 30 266 219 185 341 345 110 50 6 350 93 63 34 26 12 0 355 355 349
141 150 140 131 126 115 108 85 66 83 49 26 32 116 29 354 13 1 6 31 5 1 35 50 63 59 36 20 19 333 332 330 329 18 350 66 95 76 44 23 0 353 355 350 345
155 165 154 137 127 126 99 326 263 73 57 66 42 68 21 354 25 13 27 25 15 51 78 51 63 42 33 24 346 307 301 320 345 63 324 81 123 93 36 16 4 1 352 347 343
162 175 178 160 159 149 351 267 113 136 81 52 52 44 33 17 18 14 43 55 45 47 147 116 53 28 22 13 335 333 347 345 318 308 321 121 128 114 24 19 7 355 349 347 344
163 180 180 180 187 146 86 121 124 125 137 43 37 25 13 21 36 359 21 21 27 47 52 62 25 6 13 16 354 59 1 338 314 315 143 191 163 197 98 12 358 351 349 348 344
168 184 183 175 137 155 156 127 122 226 211 21 8 14 355 24 54 18 17 17 49 35 59 59 24 15 20 21 354 308 354 321 322 320 348 198 2 134 13 359 354 350 349 345 342
168 180 188 180 203 189 197 192 342 283 241 13 18 1 17 62 338 12 19 58 57 26 252 52 31 18 26 1 352 325 316 289 284 286 307 99 298 106 46 355 354 347 346 343 341
177 176 190 208 247 203 187 247 317 231 84 72 17 356 85 35 37 9 30 47 68 66 74 74 65 35 356 315 338 333 325 82 194 257 238 34 338 81 22 4 350 344 341 341 339
159 191 193 183 202 166 174 298 252 342 180 63 12 6 58 25 41 30 52 47 32 333 32 129 51 88 13 356 194 2 357 353 346 339 4 358 312 61 19 7 355 343 340 339 339
166 168 172 174 159 159 174 244 281 38 37 84 334 6 56 355 52 27 54 49 29 355 319 346 264 21 19 32 322 357 12 31 319 341 315 300 340 87 359 3 353 344 339 338 339
135 151 163 166 170 161 270 255 27 43 27 315 241 275 99 64 349 83 54 39 22 12 8 348 82 117 33 17 14 346 22 337 289 286 297 352 65 160 1 357 349 344 341 339 338
111 116 141 160 163 148 272 74 85 53 353 283 354 352 20 18 342 41 35 14 11 18 348 20 277 34 35 263 52 47 353 6 325 346 320 338 28 348 350 350 346 344 340 340 338
110 151 159 140 125 43 23 71 111 73 28 354 43 78 56 29 20 47 33 71 8 353 347 344 272 101 245 32 10 11 25 10 273 14 310 316 34 5 351 348 343 338 338 339 339
217 197 168 146 154 46 96 95 112 109 67 61 62 47 49 40 52 75 74 40 3 346 6 14 319 14 51 101 47 42 27 3 1 338 308 260 291 18 352 341 341 335 338 340 335
213 82 160 166 160 108 124 99 82 133 59 79 88 27 59 80 85 62 77 40 17 16 13 359 54 293 176 189 186 41 24 17 225 243 271 310 293 355 336 340 339 336 340 336 342
199 145 83 71 80 144 142 137 116 69 88 74 106 107 137 95 42 120 105 100 28 39 2 312 3 9 340 354 337 309 338 332 324 286 324 286 326 331 344 337 336 338 339 340 342
192 108 136 146 144 141 113 142 137 128 87 117 106 62 62 105 105 99 102 139 99 3 360 335 319 5 24 42 289 319 271 261 247 308 295 313 320 337 337 333 334 337 335 344 343
170 139 96 74 123 126 126 160 143 120 359 117 143 99 50 79 34 126 132 305 43 109 26 2 354 299 230 270 293 263 238 278 294 305 304 311 311 344 327 331 339 336 347 343 342
208 159 146 135 162 185 132 147 151 130 60 70 125 110 82 78 89 85 83 84 90 24 71 344 336 302 2 326 301 233 236 284 318 327 317 313 327 330 331 336 335 338 346 343 344